GFSNW_925_spd_246.txt.gz
Wind_Speed
22 23 22 25 25 21 16 5 4 5 25 6 4 9 7 17 25 18 19 8 21 18 2 5 12 15 15 13 11 16 8 5 5 8 3 4 5 9 10 5 7 3 3 6
25 24 26 26 26 26 14 4 3 6 15 6 10 4 13 18 23 11 15 13 7 10 24 5 9 7 6 8 16 16 10 5 2 6 5 1 5 6 11 3 4 9 6 6
25 25 25 26 26 30 27 3 4 3 3 3 6 11 19 20 15 28 26 25 24 8 3 6 7 3 4 7 13 10 12 5 9 15 8 4 9 8 10 9 3 6 7 3
30 29 27 24 23 31 29 7 5 5 5 10 18 15 8 18 21 17 17 22 26 26 6 6 9 15 4 3 3 8 7 7 6 7 6 4 4 10 11 12 19 8 10 8
32 31 30 29 26 28 29 6 5 4 8 6 15 22 21 25 27 20 17 25 32 27 29 13 18 9 6 7 2 6 3 5 7 5 7 7 4 5 8 5 4 4 4 6
33 33 33 32 31 30 14 11 13 4 9 15 6 16 19 22 26 22 24 26 25 22 32 19 15 4 5 6 9 7 7 5 3 5 1 5 2 11 8 6 4 8 7 8
36 35 35 36 36 35 32 13 8 7 11 12 18 23 23 23 19 22 21 20 29 29 8 9 6 4 14 12 5 7 7 6 3 8 2 3 8 2 9 13 5 8 4 3
39 38 39 39 40 41 37 28 15 9 14 16 19 21 19 21 18 27 21 27 23 19 8 2 3 1 5 17 11 7 5 6 3 6 7 5 5 3 7 7 8 7 8 4
44 43 44 42 42 41 37 31 34 12 13 18 26 22 23 15 10 14 18 25 23 23 13 3 7 9 10 7 4 4 4 3 5 3 6 17 2 8 7 5 6 9 9 8
47 48 47 46 45 44 38 27 41 19 9 14 13 14 14 12 13 11 9 10 15 20 13 10 7 7 9 7 13 6 3 1 5 2 4 6 6 4 5 6 6 3 5 6
41 42 42 45 44 43 41 33 32 29 9 8 19 14 12 9 13 14 8 9 14 6 8 6 4 4 11 6 19 11 8 6 4 3 1 10 7 1 9 4 3 4 5 4
36 36 37 40 43 43 42 26 32 36 11 4 31 23 24 30 22 8 9 10 6 7 5 4 3 1 1 9 10 4 18 9 5 8 6 1 4 2 2 3 5 4 7 6
27 30 32 35 39 42 44 30 24 22 9 5 5 9 31 36 38 32 6 5 9 5 6 5 3 4 4 5 10 4 3 4 5 4 2 4 5 6 6 7 10 8 7 6
21 25 28 30 32 35 43 35 27 27 3 6 6 22 26 32 21 20 33 26 28 6 2 2 3 3 1 4 3 7 4 7 7 1 6 10 3 4 6 7 7 7 4 3
15 18 25 32 34 35 37 43 31 44 9 4 3 2 12 15 23 28 27 20 19 8 2 3 3 3 3 1 2 3 4 6 6 8 12 5 6 9 7 7 5 7 5 2
14 25 38 42 54 45 22 3 17 37 30 3 2 2 3 2 5 16 15 17 13 2 2 2 2 2 2 4 5 3 4 3 4 5 4 4 10 10 5 5 7 5 5 3
23 34 32 34 44 54 14 4 21 39 26 2 2 3 3 2 2 5 2 3 3 2 2 2 2 2 3 1 6 5 6 6 7 10 10 6 5 5 8 4 4 6 7 11
28 21 26 40 45 42 9 28 49 37 9 2 3 2 2 3 2 2 1 3 2 3 2 2 2 2 2 3 4 5 9 8 5 6 7 5 5 6 7 6 11 11 9 9
18 16 13 20 17 5 7 39 33 16 5 3 3 1 1 1 0 2 2 2 3 1 2 2 2 3 5 3 5 8 9 6 7 8 9 10 12 10 9 10 10 12 10 10
9 11 4 4 5 7 12 8 3 2 2 1 2 1 2 2 1 2 3 2 2 2 1 3 1 2 2 1 4 7 7 12 13 14 7 7 8 9 9 11 9 10 9 8
6 3 2 1 2 3 2 2 2 2 3 3 2 0 3 1 1 2 3 2 2 2 2 2 2 1 1 4 7 7 9 9 9 10 9 9 12 10 10 10 9 10 11 7
2 1 1 0 3 2 4 1 2 1 2 2 2 2 2 3 3 3 2 2 2 3 3 3 3 2 7 10 10 9 11 14 13 11 14 13 12 12 10 9 8 11 13 13
4 2 3 3 2 5 2 2 1 2 1 2 2 2 1 2 2 3 3 4 2 4 3 3 2 7 10 12 11 11 10 13 13 12 13 16 15 17 16 11 15 16 14 12
3 4 6 3 3 3 2 2 1 1 3 6 2 2 2 1 3 2 5 2 3 2 2 3 4 11 12 11 10 14 13 11 12 12 11 11 13 14 18 17 17 19 16 15
3 4 4 3 2 2 2 1 3 3 2 2 2 2 2 3 4 2 3 2 1 3 3 2 7 13 12 12 12 13 14 12 10 10 11 12 16 16 15 16 16 16 15 17
3 6 3 2 2 5 4 3 2 2 0 1 2 3 3 3 2 2 1 4 2 3 1 3 11 13 10 12 12 12 12 10 10 14 16 16 15 15 15 17 18 20 21 20
4 2 1 2 1 2 2 0 3 3 3 2 2 4 3 0 2 2 1 3 2 1 3 6 9 12 12 12 11 11 10 9 13 15 17 16 18 21 18 12 14 18 20 20

GFSNW_925_spd_249.txt.gz
Wind_Speed
14 12 10 14 13 13 10 3 2 5 24 5 4 7 6 7 12 10 15 7 13 16 18 11 14 18 18 16 23 15 22 8 13 13 3 5 11 13 14 6 7 4 5 9
15 15 15 13 16 14 11 3 3 5 13 7 10 5 10 10 13 8 6 10 12 16 14 10 16 8 8 7 14 12 10 8 9 5 5 2 6 7 14 7 3 10 8 8
18 18 18 17 17 17 19 4 4 4 4 7 11 13 13 14 11 15 15 15 12 8 17 18 12 9 2 2 7 13 7 5 15 20 22 7 7 8 12 15 3 17 14 16
22 22 22 21 20 18 24 5 5 5 6 13 17 11 6 13 11 13 12 10 23 23 9 17 21 23 24 7 4 1 7 10 13 21 14 5 6 13 14 16 24 11 17 15
24 24 24 24 23 20 19 5 5 3 6 10 20 20 21 23 21 9 10 20 21 18 27 19 22 15 7 13 2 3 0 2 5 14 11 12 10 5 16 21 12 13 13 14
28 28 29 29 27 24 11 10 5 3 10 12 14 18 24 27 26 19 22 20 19 19 25 18 21 19 24 4 6 2 2 3 5 23 5 7 3 19 9 9 6 12 13 16
31 31 32 32 32 34 27 11 5 3 8 15 22 22 22 23 22 21 16 18 21 24 23 17 21 24 24 17 14 3 7 5 7 12 2 9 7 3 12 16 7 12 4 6
37 37 36 36 35 37 35 27 12 5 7 14 17 25 25 22 20 20 19 17 16 13 14 6 8 13 14 18 17 16 5 9 3 4 5 7 15 4 6 8 12 14 9 7
43 42 41 40 39 38 38 35 31 9 3 18 24 21 18 18 16 14 15 13 13 12 12 5 9 10 8 9 8 15 9 6 12 3 5 11 12 12 7 4 8 9 12 9
48 46 46 45 44 42 41 25 39 15 7 10 14 17 18 15 14 11 7 9 9 14 14 10 11 15 7 10 13 9 8 3 19 14 7 8 5 4 8 10 8 6 7 9
47 47 47 47 46 45 44 36 36 26 5 12 15 26 19 8 13 13 10 6 8 7 10 10 7 8 6 9 17 11 10 10 5 4 11 19 7 4 11 5 2 5 6 6
28 38 42 42 43 43 46 29 37 35 8 3 19 28 38 36 19 13 5 7 10 5 7 7 5 7 5 12 9 7 9 6 8 11 6 1 2 3 3 2 7 5 8 10
16 22 30 34 38 40 42 32 29 28 7 4 8 12 35 34 39 30 7 6 7 6 9 5 6 7 2 9 13 9 4 4 4 2 4 5 3 4 3 4 9 12 14 12
17 16 19 26 32 36 39 34 32 30 2 5 6 22 23 41 34 27 26 22 5 2 2 5 6 6 4 4 4 12 4 11 14 6 6 8 1 3 10 13 13 13 11 11
10 12 19 25 29 28 32 36 32 40 8 2 2 6 27 34 31 37 41 19 13 10 6 5 10 7 2 3 1 4 5 6 7 5 12 7 6 13 10 13 14 14 14 9
11 18 22 23 25 26 25 4 25 41 35 3 3 2 5 25 34 23 15 13 8 5 4 3 4 6 5 4 4 1 4 3 3 4 11 3 11 11 6 7 8 8 9 7
22 17 23 34 42 36 9 5 10 42 28 2 3 4 3 15 10 8 9 14 6 7 4 4 3 4 5 2 3 4 6 6 9 14 15 12 15 9 9 12 11 14 15 13
16 13 19 39 26 38 9 7 17 45 9 3 3 2 2 4 5 5 4 3 5 4 5 2 4 3 1 2 4 7 9 11 10 6 8 9 13 11 8 12 13 12 11 11
7 10 6 14 15 4 5 26 33 20 5 4 3 2 2 3 2 3 3 3 4 3 4 4 3 3 4 2 8 14 15 8 13 11 13 14 12 12 14 15 14 15 12 12
10 9 5 4 6 21 24 5 2 1 1 1 2 1 2 1 1 1 2 3 4 4 2 3 3 3 2 1 3 6 7 12 16 15 10 14 13 13 12 14 13 13 13 12
4 3 2 3 3 3 2 3 4 3 3 3 2 2 2 1 1 2 1 1 1 3 3 3 3 2 3 5 7 8 9 9 6 11 11 11 15 15 15 13 13 13 15 12
2 4 4 3 1 1 1 1 2 3 2 3 3 3 2 2 1 2 1 1 1 2 3 2 3 1 8 9 11 11 11 13 13 15 17 16 17 16 14 12 11 17 19 19
4 2 2 1 1 1 1 1 1 1 2 2 2 3 2 2 1 2 1 2 2 1 1 0 1 6 9 9 11 12 12 15 17 17 18 20 18 21 19 14 19 21 21 19
2 2 3 2 2 1 2 2 1 1 1 4 3 2 1 1 2 2 3 3 2 1 2 3 3 8 9 8 9 14 13 14 16 15 14 15 16 17 20 20 23 22 20 18
2 3 3 3 3 1 1 1 2 3 1 1 1 2 2 2 3 1 2 1 1 2 1 2 6 10 12 11 12 13 13 12 13 13 13 14 19 19 20 21 21 21 21 20
3 4 2 2 2 3 3 2 1 1 1 1 1 2 3 3 2 2 1 2 1 1 2 4 9 12 11 12 11 11 11 12 12 16 19 20 19 18 19 21 21 25 27 25
3 2 1 1 2 1 1 1 2 0 1 1 1 3 3 1 2 2 0 1 1 2 5 6 11 12 12 12 13 13 11 12 17 19 19 20 22 23 24 18 19 22 24 25

GFSNW_925_spd_252.txt.gz
Wind_Speed
9 9 8 9 10 8 10 5 3 7 17 7 5 11 7 7 14 8 8 11 15 15 13 10 9 9 20 11 22 24 19 12 19 29 17 19 23 27 28 12 18 9 14 17
11 10 10 9 8 10 8 3 4 6 19 8 12 11 12 16 15 15 10 13 12 15 21 9 13 15 17 22 25 16 16 11 13 25 23 18 14 26 23 24 14 14 14 15
13 14 12 11 10 12 11 3 4 5 5 11 15 16 20 21 13 19 23 19 15 17 20 16 12 15 9 22 30 28 10 11 16 18 26 22 17 23 26 23 12 19 19 23
18 17 16 15 14 13 13 4 6 8 7 12 20 19 14 18 22 16 14 15 22 22 22 20 24 24 27 23 21 16 8 15 16 22 32 30 27 25 26 23 27 23 23 24
19 20 20 19 18 17 14 3 3 6 14 15 21 22 25 26 24 19 15 21 21 16 17 21 24 23 20 15 17 15 12 5 20 26 29 28 28 24 26 28 29 27 28 24
22 22 23 23 22 23 14 9 4 2 11 21 15 22 27 28 24 23 24 23 20 18 15 17 19 19 14 16 17 20 12 4 6 26 29 22 17 31 28 24 21 21 21 23
25 25 26 27 29 32 28 11 11 5 15 14 20 26 26 30 26 25 22 16 19 24 20 22 23 27 25 24 28 19 16 21 11 6 12 20 23 16 25 27 25 20 19 16
29 30 30 31 33 35 33 27 14 4 13 18 19 22 23 24 23 24 23 23 19 13 15 14 12 14 22 28 29 25 21 22 6 6 4 10 19 23 17 19 20 23 20 13
33 36 37 37 38 38 37 34 30 8 7 17 21 22 23 20 19 19 23 21 21 15 11 12 18 13 17 15 14 27 26 28 16 5 6 13 22 16 14 10 16 19 19 15
35 38 42 43 43 42 42 24 38 22 10 15 17 9 13 18 19 15 16 18 17 17 12 14 16 18 19 20 20 17 17 16 17 12 7 11 9 5 16 13 15 11 12 14
28 30 35 43 48 48 45 35 35 35 11 17 18 26 24 16 13 15 11 6 11 10 13 13 14 13 17 19 30 24 14 13 9 8 9 19 10 15 18 10 1 7 13 16
30 30 31 35 47 50 48 32 37 40 11 10 27 39 33 33 32 14 14 10 12 8 7 11 12 14 9 21 20 22 11 15 15 16 13 4 8 13 6 6 8 9 14 13
27 27 24 20 29 42 47 38 31 32 12 11 16 21 31 34 38 36 13 12 21 18 12 8 5 8 5 14 21 15 20 27 17 10 17 13 8 2 2 6 11 14 17 17
13 14 18 16 20 31 42 39 31 34 3 6 8 22 39 44 35 37 40 29 19 14 7 8 5 8 2 7 9 14 21 20 20 19 8 7 5 2 6 10 13 14 16 16
13 13 13 15 19 22 31 37 33 43 8 3 6 14 23 29 38 37 41 31 20 11 8 5 7 6 6 8 8 16 26 19 16 13 14 11 7 13 14 17 17 13 15 15
17 18 20 20 22 21 16 3 30 43 34 3 4 5 7 23 32 34 23 19 16 12 8 7 6 13 6 6 8 27 29 15 14 15 6 6 17 17 15 16 16 12 11 13
19 15 12 15 20 19 5 3 8 46 34 2 3 4 7 16 20 14 12 21 10 9 6 7 6 7 5 4 16 31 15 6 7 17 20 15 17 11 16 18 18 17 17 16
5 4 5 17 17 28 10 9 17 42 11 3 3 2 4 10 7 6 9 5 5 7 4 3 7 5 5 9 21 25 13 10 11 8 2 14 15 18 17 17 17 17 14 14
6 6 7 8 10 3 5 14 39 22 4 3 4 4 5 4 4 4 4 6 6 5 8 7 6 6 8 12 18 17 17 12 13 14 16 19 20 18 17 16 14 15 14 15
4 2 2 2 6 35 28 4 2 1 2 2 3 1 4 6 6 4 4 4 5 5 7 6 6 11 14 11 10 2 6 14 16 20 13 18 16 15 14 14 14 15 16 16
1 2 2 2 3 2 1 4 4 4 3 4 4 7 5 3 4 3 3 4 5 4 5 6 5 4 9 7 3 5 8 10 8 13 14 12 17 17 17 16 15 14 18 15
3 10 6 3 1 1 3 5 4 5 3 3 4 4 3 3 2 2 4 3 4 4 6 3 3 2 7 9 9 11 12 14 15 17 17 18 19 18 17 15 15 20 24 24
4 3 3 3 3 5 4 4 3 3 3 3 2 2 3 2 2 1 2 4 2 1 3 2 2 3 6 9 11 13 14 17 17 18 19 22 19 23 22 17 22 25 24 22
3 4 3 3 2 2 1 3 3 1 2 2 2 2 1 2 3 3 3 0 2 2 2 1 3 6 5 5 9 14 14 16 17 17 18 18 17 19 23 24 25 25 22 21
1 1 2 0 2 1 1 2 1 1 1 2 3 2 2 2 2 2 1 2 2 2 2 2 5 9 8 9 9 13 15 14 15 17 17 16 21 21 23 25 24 24 23 22
1 1 3 2 1 3 1 1 3 4 3 2 3 3 2 2 1 2 3 2 2 2 2 4 8 9 10 12 13 12 12 15 16 19 23 23 22 23 25 24 22 21 21 21
2 2 2 0 3 2 1 1 2 0 2 1 1 1 1 1 2 1 2 2 3 3 5 6 10 12 12 11 12 11 11 15 19 22 23 24 26 28 27 20 22 22 20 21

GFSNW_925_spd_255.txt.gz
Wind_Speed
8 8 6 8 8 7 8 2 4 6 10 8 8 12 9 5 18 12 15 11 18 21 19 20 18 20 19 20 21 14 19 11 17 27 25 28 24 22 27 17 26 16 19 19
10 9 9 8 8 14 8 2 5 5 12 7 13 14 15 16 19 19 13 18 15 16 20 22 21 22 21 17 12 13 17 7 10 25 20 20 26 29 28 23 21 24 17 17
11 11 11 11 10 12 10 2 3 4 7 12 15 17 19 21 13 12 17 22 22 23 21 18 21 23 21 17 21 9 12 14 16 17 26 19 23 33 31 27 18 20 23 29
14 14 14 14 12 13 11 4 6 7 5 11 17 19 18 17 18 18 15 15 18 23 22 21 23 24 22 19 16 9 4 9 20 23 27 28 26 28 29 32 24 25 27 26
15 17 18 18 17 15 16 3 4 7 13 17 17 18 22 24 21 20 20 21 20 20 19 19 22 22 21 20 16 14 4 6 19 19 29 27 29 29 28 30 31 36 32 31
19 20 21 20 21 22 13 10 3 5 10 16 16 18 20 22 20 21 22 22 20 21 19 19 18 20 19 18 17 16 15 6 5 12 23 27 25 28 32 33 32 30 24 26
22 22 24 25 27 29 27 15 13 5 13 16 18 22 21 22 22 23 21 19 18 19 18 18 19 20 21 23 24 21 22 18 8 14 19 18 17 24 31 28 31 31 30 29
24 25 26 27 30 32 33 31 18 5 11 16 22 25 25 19 20 23 22 22 21 16 15 13 12 14 20 23 25 23 24 18 11 10 15 26 32 20 23 27 31 29 33 29
25 26 29 31 32 33 35 34 31 16 11 15 22 21 20 17 17 19 23 20 20 13 11 12 16 13 19 13 10 15 23 23 16 13 10 8 18 14 23 22 23 27 28 26
30 32 33 35 37 37 38 28 35 23 12 15 18 14 16 20 18 16 17 18 18 17 12 13 15 18 23 22 26 23 16 16 19 20 14 16 27 35 17 15 10 13 21 18
28 30 30 32 37 42 45 35 38 28 10 18 22 24 25 19 12 11 11 9 11 10 11 12 12 12 18 21 26 25 22 14 11 18 18 23 20 28 27 14 7 5 4 11
23 25 27 29 32 34 39 34 40 39 12 5 27 43 38 33 31 17 15 9 13 3 6 9 10 12 13 19 18 22 24 20 17 8 7 16 26 23 17 20 10 6 12 18
23 25 27 29 30 32 34 41 33 31 11 8 19 22 30 31 46 33 14 15 23 19 19 11 8 10 7 13 17 24 25 21 16 19 28 31 33 8 5 3 7 9 15 18
19 21 17 20 24 27 27 32 29 32 3 6 10 23 38 41 30 35 41 32 25 18 10 8 6 9 10 13 16 15 11 12 15 22 27 24 30 36 10 8 8 9 12 19
12 15 17 16 17 19 19 28 28 38 11 3 7 20 26 27 38 42 39 31 21 13 12 5 6 8 10 12 12 16 14 19 16 22 23 16 31 12 10 17 17 14 15 16
18 22 23 22 20 18 12 2 24 37 34 3 6 9 12 26 29 30 30 22 16 13 11 8 9 23 14 9 14 29 22 22 23 24 25 19 32 17 15 16 17 17 18 16
20 18 16 16 16 15 5 2 1 37 35 2 3 4 9 18 18 14 12 22 10 9 8 10 14 14 9 8 19 27 16 18 22 23 26 33 30 18 20 20 19 19 20 20
17 11 8 9 14 17 15 12 2 34 10 3 3 3 3 13 9 5 10 6 8 4 4 5 11 11 10 13 21 21 25 25 24 28 29 37 13 20 20 19 19 20 19 19
9 8 8 7 4 1 6 17 19 22 6 3 3 6 7 4 6 5 3 5 4 5 6 12 8 10 11 13 19 20 20 20 21 32 13 21 23 21 20 19 19 21 19 17
3 5 2 1 5 21 24 5 3 1 2 2 4 7 8 6 5 5 3 3 5 4 9 5 8 17 25 24 18 18 18 14 27 16 18 21 20 18 19 18 18 18 17 16
5 2 1 7 7 2 2 3 4 4 4 4 5 11 8 5 4 6 5 2 5 5 6 8 6 13 18 22 26 18 8 14 3 6 12 14 16 17 18 17 17 17 20 17
4 11 8 4 3 2 3 5 4 6 5 4 2 3 5 3 3 3 4 3 3 5 6 5 5 4 6 4 8 5 7 9 11 13 18 18 18 17 18 17 17 21 26 26
5 1 4 4 4 6 5 6 4 4 4 3 1 2 1 2 3 3 3 5 4 4 3 3 3 6 9 9 9 11 13 15 19 19 18 22 19 25 25 17 25 28 25 26
4 5 5 5 5 5 3 5 4 3 2 2 2 2 2 2 3 2 4 0 3 3 3 1 4 4 6 6 5 11 12 14 16 17 18 19 20 19 25 25 26 27 26 24
4 3 4 5 2 3 5 4 2 1 1 1 2 2 2 3 3 3 3 3 3 3 2 3 3 5 8 7 8 11 12 12 14 15 16 18 23 22 24 25 26 25 25 23
3 5 3 2 3 2 1 1 2 4 3 4 4 3 3 4 3 3 4 3 2 2 3 3 5 8 8 9 10 11 12 14 14 17 21 23 22 23 26 26 24 23 24 24
4 3 3 4 6 4 3 2 0 2 3 3 2 3 2 2 3 2 2 3 3 2 2 3 7 9 9 11 13 12 12 14 18 20 22 23 26 27 26 21 23 23 21 22

GFSNW_925_spd_258.txt.gz
Wind_Speed
6 5 4 5 5 3 2 4 3 3 2 4 6 9 7 5 18 18 19 15 16 18 17 19 22 23 21 22 12 13 12 5 11 21 22 20 15 21 18 6 8 16 16 14
7 7 5 3 6 8 7 3 2 1 3 5 9 14 17 15 14 14 15 19 19 18 20 20 19 21 20 19 17 7 9 6 7 12 15 18 17 16 26 21 12 20 13 17
10 8 7 7 6 8 4 3 2 2 4 8 13 14 15 18 16 17 14 15 16 18 21 21 22 23 20 18 19 12 4 7 12 13 21 24 18 19 20 22 16 13 16 26
11 10 9 8 8 7 6 2 4 6 3 8 11 14 13 18 19 19 17 18 19 18 18 19 19 22 22 20 20 15 4 13 13 23 24 23 26 28 26 22 22 24 27 24
13 13 13 12 12 8 10 2 3 6 9 13 15 12 15 19 19 20 21 22 22 19 20 17 18 13 13 8 13 15 7 8 12 24 25 21 21 29 29 29 26 21 26 27
13 14 14 16 17 14 11 8 11 4 7 11 12 13 18 17 17 18 21 22 20 21 19 15 13 16 15 15 15 15 13 7 8 21 17 19 16 20 20 25 27 21 24 30
16 17 19 20 20 22 21 15 7 3 11 13 15 18 21 22 20 19 22 20 18 20 15 19 15 17 17 17 17 16 17 14 10 16 18 15 16 16 20 26 28 26 24 27
20 21 21 22 24 25 25 24 17 3 9 12 15 18 20 21 21 22 20 20 20 13 13 8 9 9 14 18 20 20 17 15 13 15 15 21 29 23 22 17 28 25 29 26
24 24 23 25 26 26 26 27 26 14 7 13 21 19 19 15 14 16 20 18 20 15 12 9 10 10 14 11 15 11 20 20 16 15 14 15 24 17 22 21 22 16 20 26
25 25 27 27 28 29 30 25 28 20 11 16 16 12 15 17 17 14 17 17 14 8 10 10 13 15 16 18 20 20 14 13 14 15 18 18 30 25 22 15 11 26 26 31
27 28 29 32 32 33 33 33 31 24 8 17 21 21 22 18 15 13 10 8 9 7 6 6 11 9 12 16 23 23 20 16 14 15 19 24 16 15 18 8 22 24 30 38
26 27 28 28 30 31 32 27 33 37 21 5 14 34 42 35 28 16 15 15 16 2 4 6 6 9 8 15 14 18 17 17 15 17 15 22 25 25 26 25 24 26 24 38
21 22 23 25 27 28 30 32 25 21 9 13 13 17 27 35 45 40 13 13 17 15 12 10 5 9 4 6 11 17 18 18 15 19 21 26 24 23 26 28 19 22 36 40
19 20 23 23 22 24 31 31 32 25 3 5 9 24 34 46 33 35 36 32 25 18 9 9 7 10 7 13 15 13 12 16 20 19 22 22 25 24 21 24 25 25 28 31
10 9 13 17 21 21 19 26 27 30 11 3 4 13 28 28 31 39 37 30 18 12 13 10 12 9 9 10 13 13 18 19 15 18 23 19 24 22 24 21 26 31 29 8
12 13 17 18 22 17 10 3 18 31 33 3 4 9 17 19 28 26 26 24 15 12 7 6 8 23 12 6 10 21 20 19 19 19 22 24 24 18 19 22 27 26 26 13
15 18 20 17 15 16 6 4 2 19 30 1 3 4 8 26 20 15 13 19 10 12 13 13 15 17 12 10 19 26 22 22 20 20 22 24 22 19 18 20 25 30 18 21
19 21 11 5 6 10 12 22 8 18 8 2 3 4 3 11 8 8 8 10 7 5 5 5 10 8 9 11 22 23 25 24 24 22 20 24 22 20 21 22 27 13 21 19
15 7 5 5 6 4 6 12 14 16 4 2 3 5 8 6 6 3 1 3 4 4 5 8 6 8 9 13 18 21 21 19 19 20 19 17 21 23 24 22 16 19 19 18
6 6 4 1 2 13 18 3 1 1 2 2 4 7 7 4 3 3 1 2 3 4 6 4 7 14 24 22 23 21 20 18 15 15 22 22 31 16 14 16 15 16 19 19
6 3 1 5 10 2 2 3 3 4 3 4 5 9 8 4 4 5 4 2 3 4 4 7 4 5 12 21 25 25 26 22 16 13 24 17 13 19 19 18 17 16 17 18
2 9 7 6 3 2 3 4 4 6 4 4 3 2 2 2 1 3 3 3 3 6 2 3 3 4 13 14 16 11 2 4 7 9 16 17 20 18 18 16 17 21 27 28
7 3 5 4 4 5 5 6 5 4 3 5 2 2 0 2 3 3 3 5 5 0 3 3 2 5 7 8 8 14 15 16 16 15 14 19 19 26 24 19 27 29 28 28
2 4 4 5 5 6 4 4 2 2 1 3 3 1 2 2 3 2 4 3 3 4 3 2 4 5 6 7 7 11 13 15 15 16 17 19 19 18 26 28 29 30 27 27
5 5 5 7 6 1 3 4 4 3 2 1 2 2 3 3 3 3 4 4 4 3 4 3 4 6 6 9 9 11 13 13 14 13 15 16 23 23 24 27 29 28 29 28
4 5 4 3 4 2 1 3 2 4 5 4 3 3 3 4 3 4 4 4 3 4 3 1 3 6 7 9 10 11 12 14 13 19 21 23 22 23 26 29 29 27 26 25
5 3 3 5 4 4 4 5 3 5 3 2 3 3 4 3 3 3 3 3 3 3 3 4 6 7 7 9 9 11 14 15 18 21 23 25 26 27 27 20 23 23 22 25

GFSNW_925_spd_264.txt.gz
Wind_Speed
2 3 4 5 5 5 6 3 3 7 7 4 1 3 3 3 5 4 4 1 3 2 5 3 3 3 2 10 5 7 3 4 8 14 13 17 7 8 5 1 1 5 4 10
2 3 3 5 7 6 4 2 2 6 6 3 2 4 3 3 6 6 4 4 2 1 2 4 4 3 4 7 5 4 4 3 6 17 5 6 5 4 9 8 4 7 4 10
3 3 3 4 6 5 5 3 2 4 4 1 4 2 2 3 6 3 5 4 5 6 5 5 6 6 3 7 4 9 5 6 9 11 9 8 14 10 3 7 6 10 12 23
3 2 2 3 5 4 3 3 2 1 1 3 1 2 2 3 4 3 7 4 4 3 4 7 5 6 5 4 2 5 3 4 6 11 12 5 7 11 10 9 9 10 14 25
5 3 2 2 3 3 4 2 3 4 2 2 2 2 2 3 5 3 5 6 8 5 3 6 10 6 3 4 2 4 2 5 3 13 9 10 14 10 5 10 16 16 16 21
7 6 3 2 1 1 2 2 2 4 4 3 3 2 1 3 5 6 3 8 7 8 10 10 8 7 6 8 6 5 3 3 1 15 5 13 16 13 8 5 2 6 10 18
8 6 5 4 4 5 1 4 3 2 3 3 3 3 6 11 10 8 10 5 4 5 11 11 6 7 11 13 14 9 8 5 1 7 4 9 13 10 13 9 10 11 21 17
7 7 6 6 6 6 9 6 2 1 2 3 5 6 7 7 5 7 5 8 6 14 7 5 7 7 10 11 14 15 16 10 3 8 11 16 25 18 12 10 19 10 17 9
9 9 9 9 9 9 10 12 9 2 1 6 10 7 6 8 6 6 8 10 12 6 3 0 4 7 6 6 5 5 9 11 9 2 4 8 28 4 7 5 11 4 7 10
11 12 13 14 13 12 13 8 13 5 3 7 8 6 5 4 2 3 5 5 4 1 1 4 7 11 7 10 14 9 6 4 11 12 9 14 10 2 4 4 9 4 5 5
14 13 13 14 13 14 16 13 19 15 3 7 11 9 11 5 3 6 4 5 3 2 3 3 4 4 5 6 11 10 11 8 11 8 15 19 3 1 7 5 8 5 5 5
14 16 17 18 19 19 19 13 19 20 10 5 7 21 31 30 25 6 4 7 4 3 0 2 2 3 3 4 6 5 6 7 5 6 5 14 8 6 6 7 16 4 4 6
13 15 17 18 19 19 22 23 15 17 5 9 12 15 27 31 40 33 8 9 8 8 5 3 4 8 3 4 6 10 7 13 11 7 15 23 20 13 7 10 16 6 5 6
13 15 14 14 13 15 17 23 18 18 4 3 4 15 16 29 36 36 39 35 18 8 1 4 5 6 4 5 8 9 12 2 13 16 19 18 18 19 19 19 17 5 9 9
9 7 9 10 10 11 14 19 24 25 10 3 4 7 26 31 25 33 35 31 16 9 5 5 6 3 6 8 8 15 21 27 12 17 24 18 21 20 14 10 14 13 8 7
7 7 6 6 4 3 3 2 14 28 28 3 3 4 8 16 24 26 21 22 9 7 3 4 5 16 6 5 12 31 27 20 22 23 27 24 22 22 22 17 19 11 8 6
7 7 8 11 11 9 5 3 2 8 23 1 4 4 5 5 11 5 3 10 4 4 4 6 10 13 7 7 17 37 26 21 20 19 21 23 24 19 19 16 14 11 9 6
7 8 8 11 13 12 14 23 11 8 3 1 3 4 4 4 2 2 4 3 4 5 5 3 5 4 5 9 23 23 24 24 23 24 24 24 24 20 20 15 10 9 4 2
7 8 9 5 9 6 4 6 9 17 8 2 2 2 4 1 2 1 1 2 4 3 4 5 4 5 7 16 19 20 22 19 24 24 23 21 22 22 19 13 12 7 7 9
9 4 4 2 4 7 10 4 2 1 2 2 4 3 3 2 2 2 2 2 2 3 4 1 4 7 12 12 16 17 19 20 24 22 20 19 14 16 19 16 8 8 10 13
6 5 3 3 13 6 2 2 2 3 3 3 4 5 4 2 2 3 2 2 2 3 3 3 3 2 10 17 19 17 17 15 13 12 11 11 17 13 10 6 7 12 21 20
2 6 7 5 3 2 3 4 2 4 4 3 4 4 4 2 1 2 2 2 2 5 1 3 2 5 17 15 16 17 16 15 16 17 17 11 11 8 15 14 16 25 34 36
3 5 4 3 2 6 5 6 4 3 3 3 2 2 1 0 0 2 1 3 5 3 3 2 2 11 13 13 12 13 14 15 17 19 21 26 23 33 30 22 33 37 36 36
3 4 5 4 5 6 5 4 3 3 3 4 2 1 2 1 2 1 3 4 3 3 2 4 5 10 11 11 10 10 12 14 16 17 19 22 22 23 33 34 36 37 32 31
3 3 5 7 4 2 3 3 2 2 4 3 2 1 1 2 2 2 3 3 3 1 3 3 4 7 8 8 9 10 11 11 12 15 16 19 27 28 29 30 32 35 34 32
3 5 2 2 3 3 2 1 2 3 3 2 1 2 2 4 3 3 5 2 2 1 1 2 3 5 5 6 8 8 11 13 15 18 20 23 24 26 28 31 31 30 30 30
4 4 3 3 2 4 4 4 4 7 4 3 2 4 4 1 2 3 1 3 1 1 1 1 2 3 4 5 6 9 11 13 17 20 21 24 25 28 27 23 24 28 29 31